www.pogodaiklimat.ru

АРХИВ ПОГОДЫ в Кишиневе

Время (UTC), дата Ветер
(напр.,м/с)
 
Видим.   Явления Облачность Т
(С)
Тd
(С)
f
(%)
Тe
(С)
Тes
(С)
Комфортность P
(гПа)
Po
(гПа)
Тmin
(С)
Tmax
(С)
R
(мм)
S
(см)
15 11.01 С 2 1000 м в посл. час снег {туман} 10/0 600 м
[As op]
-3.5 -4.3 94 -8 -8 прохладно 1014.2 992.7
18 11.01 З 2 4000 м слабый снег {туман} 10/10 600 м
[Sc]
-4.0 -4.8 94 -8 -8 прохладно 1013.3 991.8 -3.5 8
21 11.01 З 6 10 км слабый снег 10/10 600 м
[Sc]
-6.0 -7.2 91 -14 -14 очень
холодно
1013.1 991.4
00 12.01 З 2 10 км {снег} [диам. изморози 0 мм] 4/0
[Ac lent Ci fib]
-7.8 -9.2 90 -12 -12 холодно 1012.5 990.7
03 12.01 ЮЗ 5 2000 м дымка [диам. изморози 0 мм] 10/10 600 м
[Sc]
-8.8 -10.0 91 -17 -17 очень
холодно
1010.5 988.6
06 12.01 ЮЗ 4 10 км {туман} 10/8 600 м
[Sc Ac trans]
-8.6 -9.8 91 -16 -16 очень
холодно
1009.7 987.9 -10.1 10
09 12.01 З 1 4000 м дымка 8/0
[Ac trans Ci fib]
-8.2 -9.4 91 -11 -9 холодно 1009.6 987.8
12 12.01 ЮЗ 3 10 км 4/0
[Ci fib]
-4.9 -8.3 77 -10 -9 холодно 1009.5 988.0
15 12.01 З 2 10 км 6/0
[Ac trans Ci fib]
-5.5 -11.6 62 -9 -9 прохладно 1010.6 989.0
18 12.01 ЮЗ 1 10 км 9/9 600 м
[Sc]
-7.6 -11.9 71 -10 -10 холодно 1012.0 990.2 -3.7
21 12.01 ЮЗ 1 10 км 10/10 600 м
[Sc]
-5.6 -10.6 68 -8 -8 прохладно 1013.4 991.7
00 13.01 ЮЗ 4 10 км 10/10 600 м
[Sc]
-6.8 -11.2 71 -13 -13 холодно 1014.7 992.9
03 13.01 ЮЗ 3 10 км 10/10 600 м
[Sc]
-7.4 -11.4 73 -13 -13 холодно 1014.9 993.0
06 13.01 ЮЗ 3 10 км 3/0
[Ac trans Ci fib]
-7.5 -11.5 73 -13 -13 холодно 1015.0 993.1 -8.4 10
09 13.01 Ю 3 10 км 8/5 600 м
[Sc Ac trans]
-3.8 -9.4 65 -9 -8 прохладно 1013.5 992.0
12 13.01 Ю 4 10 км 10/10 600 м
[Sc]
0.0 -6.8 60 -5 -5 по сезону 1010.9 989.7
15 13.01 ЮВ 3 10 км 10/10 600 м
[Sc]
-2.3 -6.5 73 -7 -7 прохладно 1010.4 989.0
18 13.01 ЮВ 5 10 км 8/4 600 м
[Sc Ac trans Ci fib]
-0.8 -3.3 83 -7 -7 по сезону 1007.7 986.5 +0.1
21 13.01 В 4 10 км 10/0
[Ci fib]
-0.7 -1.8 92 -6 -6 по сезону 1004.8 983.7
00 14.01 ЮВ 4 10 км 10/0
[Ci fib]
+0.3 -1.1 90 -5 -5 по сезону 1003.1 982.1
03 14.01 Ю 7 10 км 10/5 600 м
[Sc Ci fib]
+1.2 -0.4 89 -6 -6 по сезону 1000.7 979.8
06 14.01 Ю 8
{13}
10 км 10/10 600 м
[Cb calv]
+3.0 +0.7 85 -4 -4 по сезону 999.4 978.7 -1.2 8
09 14.01 Ю 6
{12}
20 км 8/0
[Ac cast Ci fib]
+3.6 +0.1 78 -2 -1 по сезону 998.8 978.2
12 14.01 Ю 6 20 км 5/0
[Ac lent Ci fib]
+4.5 +0.1 73 -1 0 по сезону 998.8 978.2
15 14.01 ЮЗ 3 10 км 9/0
[Ac lent]
+3.3 -0.2 78 -1 -1 по сезону 1000.9 980.2
18 14.01 ЮЗ 2 20 км 10/0
[Ac und]
+2.2 -1.1 79 -1 -1 по сезону 1004.1 983.2 +4.8
21 14.01 СЗ 2 10 км 8/0
[Ac trans Ci fib]
+1.7 -1.7 78 -1 -1 по сезону 1006.9 985.9
00 15.01 СЗ 4 20 км 3/0
[Ac cast Ci fib]
+0.8 -4.0 70 -4 -4 по сезону 1009.3 988.2
03 15.01 С 3 20 км ясно -0.7 -4.1 78 -5 -5 по сезону 1011.2 990.0
06 15.01 СЗ 2 20 км 3/0
[Ci fib]
-2.2 -4.1 87 -6 -6 по сезону 1014.1 992.7 -2.5 5
09 15.01 З 1 20 км 3/0
[Ci fib]
+0.9 -3.4 73 -1 +2 по сезону 1015.9 994.7
12 15.01 СВ 1 20 км 4/0
[Ac trans Ci fib]
+3.3 -4.4 57 +2 +4 тепло 1016.4 995.4
15 15.01 В 2 20 км 3/0
[Ci fib]
+0.9 -3.8 71 -2 -2 по сезону 1018.5 997.2
18 15.01 В 2 20 км 5/5 600 м
[Sc]
-0.1 -3.8 76 -4 -4 по сезону 1020.3 998.9 +3.6
21 15.01 штиль 0 20 км 5/0
[Ac trans Ci fib]
-2.5 -4.4 87 -4 -4 по сезону 1021.4 999.8
00 16.01 штиль 0 20 км 8/8 600 м
[Sc]
-2.3 -3.7 90 -4 -4 по сезону 1022.2 1000.6
03 16.01 В 2 10 км 8/8 600 м
[Sc]
-2.7 -4.3 89 -7 -7 по сезону 1022.1 1000.5
06 16.01 Ю 1 4000 м дымка 6/6 600 м
[Sc]
-3.8 -5.2 90 -6 -6 по сезону 1022.7 1001.0 -3.9 5
09 16.01 Ю 1 10 км 4/0
[Ci fib]
-1.1 -5.3 73 -3 0 по сезону 1024.0 1002.5
12 16.01 В 2 10 км 3/0
[Ci fib]
+0.3 -5.5 65 -3 -1 по сезону 1023.4 1002.0
15 16.01 В 2 10 км 5/0
[Ac trans Ci fib]
-1.0 -5.8 70 -4 -4 по сезону 1024.0 1002.5
18 16.01 СВ 2 10 км 4/0
[Ac trans Ci fib]
-1.7 -5.2 77 -5 -5 по сезону 1025.0 1003.4 +1.8
21 16.01 штиль 0 10 км 5/0
[Ac trans Ci fib]
-2.9 -5.4 83 -4 -4 по сезону 1026.6 1004.9
00 17.01 С 1 10 км 6/0
[Ac trans Ci fib]
-4.3 -5.8 89 -7 -7 по сезону 1027.5 1005.6
03 17.01 С 3 10 км 8/0
[Ac trans Ci fib]
-4.2 -7.1 80 -9 -9 прохладно 1027.6 1005.7
06 17.01 В 2 10 км 9/0
[Ac lent Ci fib]
-4.5 -8.3 75 -9 -9 прохладно 1029.4 1007.5 -4.8 4
09 17.01 В 3 20 км 9/0
[Ac trans Ci fib]
-2.4 -7.9 66 -7 -6 по сезону 1030.5 1008.7
12 17.01 СВ 2 20 км 9/0
[Ac lent]
-0.1 -6.7 61 -3 -3 по сезону 1029.8 1008.2
15 17.01 СВ 3 20 км 10/6 600 м
[Sc Ac lent]
-0.8 -6.6 65 -5 -5 по сезону 1031.0 1009.3
18 17.01 СВ 3 20 км 8/8 600 м
[Sc]
-2.8 -7.0 73 -8 -8 прохладно 1032.4 1010.5 0.0
21 17.01 С 3 20 км 3/3 600 м
[Sc]
-4.4 -7.5 79 -10 -10 прохладно 1033.1 1011.1
00 18.01 С 5 20 км ясно -5.5 -8.1 82 -13 -13 холодно 1033.6 1011.5
03 18.01 С 2 20 км 8/5 600 м
[Sc Ac trans]
-6.9 -8.5 88 -11 -11 прохладно 1034.4 1012.2
06 18.01 С 3 10 км 10/10 600 м
[Sc]
-6.0 -7.5 89 -12 -12 холодно 1035.2 1013.0 -6.9 3
09 18.01 С 3 10 км 9/8 600 м
[Cu med, cong Ac trans]
-5.3 -7.7 83 -11 -10 холодно 1036.6 1014.4
12 18.01 С 3 10 км 3/3 600 м
[Cu hum]
-2.1 -7.2 68 -7 -6 прохладно 1035.6 1013.7

 

Местоположение метеостанции Кишинев (Молдова): широта 47.02 долгота 28.98 высота над уровнем моря 173 м.

В архиве по умолчанию представлена погода в Кишиневе за последнюю неделю. Архивные данные за месяц целиком и за предыдущие месяцы, начиная с января 2011 года, Вы можете получить, выбрав интересующий диапазон дат из раскрывающегося списка и нажав кнопку "Ввод!".

Внимание! Время в таблицах - всемирное. Для получения местного времени необходимо прибавить поправку, которая в Кишиневе равна 2 ч.

Ветер - указаны скорость ветра в м/с - средняя за 10 мин, порывы в срок и между сроками (в фигурных скобках) и направление, откуда дует ветер: С - северный, СВ - северо-восточный, В - восточный, ЮВ - юго-восточный, Ю - южный, ЮЗ - юго-западный, З - западный, СЗ - северо-западный.
Видимость - горизонтальная дальность видимости в метрах или километрах. При видимости от 1 до 10 км при отсутствии осадков обычно наблюдается дымка, при ухудшении видимости до 1 км и менее - туман. В сухую погоду видимость может ухудшаться дымом, пылью или мглою.
Явления - указаны атмосферные явления, наблюдавшиеся в срок или в последний час перед сроком; фигурными скобками обозначены явления, наблюдавшиеся между сроками (за 1-3 часа до срока); квадратными скобками обозначены град или гололедные отложения с указанием их диаметра в мм.
Облачность - указаны через наклонную черту общая и нижняя облачность в баллах и высота нижней границы облаков в метрах; квадратными скобками обозначены формы облаков: Ci - перистые, Cs - перисто-слоистые, Cc - перисто-кучевые, Ac - высококучевые, As - высокослоистые, Sc - слоисто-кучевые, Ns - слоисто-дождевые, Cu - кучевые, Cb - кучево-дождевые. Подробнее классификацию облаков см. в Атласе облаков (PDF).
T - Температура воздуха - температура, измеренная на высоте 2 м над землей.
Td - Температура точки росы - температура, при понижении до которой содержащийся в воздухе водяной пар достигнет насыщения.
f - Относительная влажность воздуха - влажноcть воздуха, измеренная на высоте 2 м над землей.
Te - Эффективная температура - температура, которую ощущает одетый по сезону человек в тени. Характеристика душности погоды. При расчете учитывается влияние влажности воздуха и скорости ветра на теплоощущения человека.
Tes - Эффективная температура на солнце - температура, которую ощущает человек, с поправкой на солнечный нагрев. Характеристика знойности погоды. Зависит от высоты солнца над горизонтом, облачности и скорости ветра. Ночью, в пасмурную погоду, а также при ветре 12 м/с и более поправка равна нулю.
P - Атмосферное давление - приведенное к уровню моря атмосферное давление.
Po - Атмосферное давление - измеренное на уровне метеостанции атмосферное давление.
Tmin - Минимальная температура - минимум температуры воздуха на высоте 2 м над землей.
Tmax - Максимальная температура - максимум температуры воздуха на высоте 2 м над землей.
R - Количество осадков - Количество выпавших осадков, мм. При наведении курсора мыши на число - период времени, за который выпало указанное количество осадков.
S - Снежный покров - Высота снежного покрова, см. При наведении курсора мыши на число - состояние снежного покрова и степень покрытия местности в баллах.